413P/Larson (2021)

Japanese version
Home page
Updated on September 11, 2022

---------------------------------------------------------------------

* Profile

Designation 413P/2020 W4
Recovery Date November 25, 2020
Magnitude 20.5 mag
Recoverer E. Schwab (Egelsbach, Germany)

* Pictures

* Orbital Elements

Epoch 2022 Aug. 9.0 TT = JDT 2459800.5
T 2021 July 20.44419 TT                                 Rudenko
q   2.1412248            (2000.0)            P               Q
n   0.13775110     Peri.  186.16493     -0.70763325     +0.68501016
a   3.7131229      Node    39.00375     -0.63594754     -0.51059204
e   0.4233359      Incl.   15.97858     -0.30793816     -0.51966994
P   7.15
From 818 observations 2014 Jan. 6-2022 July 26, mean residual 0".9.

* Finding Charts

* Magnitudes Graph

        m1 = 11.0 + 5 log d + 15.0 log r

---------------------------------------------------------------------

The orbital elements are published on M.P.E.C. 2022-O116.
The charts are made with StellaNavigator Ver.10 (AstroArts).
The magnitudes graphs are made with Comet for Windows.

---------------------------------------------------------------------

Copyright(C) Seiichi Yoshida (comet@aerith.net). All rights reserved.